Location: Unspecified
(0.0000°N, 0.0000°E)
Time: 17:49:06
(UTC+00:00)

STARLINK 1007 - Pass Details

Date: 17 January 2020
Orbit: 348 x 352 km, 53.0° (Epoch: 18 January)

Event Time Altitude Azimuth Distance (km) Brightness Sun altitude
Rises 05:24:43 0° 212° (SSW) 2,146 6.5 -10.5°
Reaches altitude 10° 05:26:43 10° 211° (SSW) 1,302 5.4 -10.1°
Maximum altitude 05:29:37 78° 125° (SE) 356 2.8 -9.4°
Drops below altitude 10° 05:32:30 10° 37° (NE) 1,294 5.7 -8.7°
Sets 05:34:29 0° 36° (NE) 2,132 6.8 -8.3°
